カタログに戻る

GEOSKAN-3

運用中科学SSO
NORAD 64893·PAYLOAD·🇷🇺 Russia
この衛星名は、まだ公式ソースで確認されていません。

打ち上げ Jul 25, 2025 から Vostochny Cosmodrome

Loading…

次のパス (今後24時間)

TLE

最新Source: Space-Track

元期: Sep 14, 2026, 14:09 UTC

1 64893U 25155T   26257.58997743  .00016526  00000-0  44005-3 0  9998
2 64893  97.4640 228.7470 0004422 195.8065 164.3042 15.38262863 94588

AllMySatでGEOSKAN-3をリアルタイム追跡

Download on the App Store